Location: Lane
(33.5226°N, 79.8788°W)
Time: 17:44:14
(UTC+00:00)

Transit 2A - Pass Details

Date: 01 October 2022
Orbit: 598 x 959 km, 66.7° (Epoch: 06 December)

Event Time Altitude Azimuth Distance (km) Brightness Sun altitude
Rises 03:15:57 0° 173° (S) 3,010 - -49.7°
Reaches altitude 10° 03:18:47 10° 157° (SSE) 2,045 - -50.2°
Maximum altitude 03:22:11 21° 109° (ESE) 1,415 - -50.7°
Drops below altitude 10° 03:25:28 10° 60° (ENE) 1,961 - -51.2°
Sets 03:28:07 0° 44° (NE) 2,849 - -51.5°
